Вернуться в каталог

DELTA 1 DEB

АктивенSSO
NORAD 12825·DEBRIS·🇺🇸 United States

Запущен Mar 5, 1978 с Vandenberg Space Force Base

Loading…

Ближайшие Пролёты (ближайшие 24 часа)

TLE

СвежийSource: Space-Track

Эпоха: Sep 13, 2026, 03:29 UTC

1 12825U 78026EW  26256.14563163 -.00000024  00000-0  16690-4 0  9994
2 12825  99.3475 133.0564 0059153 263.3611 251.0320 13.94962617317220

Отслеживайте DELTA 1 DEB в реальном времени с AllMySat

Download on the App Store